Regional Weather Roundup
Issued by NWS Northern Indiana

Home | Current Version | Previous Version | Text Only | Print | Product List | Glossary On
Versions: 1 2 3 4 5 6 7 8 9 10 11 12 13 14 15 16 17 18 19 20 21 22 23 24 25 26 27 28 29 30 31 32 33 34 35 36 37 38 39 40 41 42 43 44 45 46 47 48 49 50
000
ASUS43 KIWX 100810
RWRIWX

KIWX WEATHER ROUNDUP
NATIONAL WEATHER SERVICE NORTHERN INDIANA
400 AM EDT THU JUL 10 2014

NOTE: "FAIR" INDICATES FEW OR NO CLOUDS BELOW 12,000 FEET WITH NO
SIGNIFICANT WEATHER AND/OR OBSTRUCTIONS TO VISIBILITY.

* THESE STATIONS ARE NOT UNDER NWS QUALITY CONTROL. THEY ALSO MAY NOT
  REPORT WEATHER SUCH AS PRECIPITATION OR FOG.

INZ001>027-100900-
NORTHERN INDIANA

CITY           SKY/WX    TMP DP  RH WIND       PRES   REMARKS
GARY*          CLEAR     59  58  95 CALM      30.10S
VALPARAISO     CLEAR     57  55  93 CALM      30.10S
MICHIGAN CITY*   N/A     54  54 100 CALM      30.11R FOG
LAPORTE*       CLEAR     53  53 100 CALM      30.11S FOG
KNOX*            N/A     52  50  93 CALM      30.10R VSB 1/4
SOUTH BEND     CLEAR     56  52  86 CALM      30.11R
GOSHEN         CLEAR     59  54  83 CALM      30.09S
MONTICELLO*    CLEAR     59  56  87 NE3       30.08R
LOGANSPORT*    CLOUDY    59  55  88 CALM      30.09S
ROCHESTER*     CLEAR     59  55  88 CALM      30.10R
WARSAW*        CLEAR     54  52  94 CALM      30.09S
ANGOLA*        CLEAR     55  54  94 CALM      30.09R
FORT WAYNE     PTCLDY    60  54  80 N3        30.09R
HUNTINGTON*    CLOUDY    59  56  90 CALM      30.09R
PERU/GRISSOM   MOCLDY    62  61  96 NE2       30.09R
MARION*        CLOUDY    62  56  80 NE3       30.09S

$$
INZ028>050-100900-
CENTRAL INDIANA

CITY           SKY/WX    TMP DP  RH WIND       PRES   REMARKS
LAFAYETTE      CLEAR     59  55  87 CALM      30.09R
KOKOMO*        MOCLDY    64  57  77 NE6       30.09S
MUNCIE*        CLOUDY    64  59  83 N3        30.08S
INDIANAPOLIS   PTCLDY    61  56  83 N6        30.07R

$$
MIZ043>046-050>051-056>058-064>065-071>073-077>080-100900-
SOUTHWEST LOWER MICHIGAN

CITY           SKY/WX    TMP DP  RH WIND       PRES   REMARKS
BATTLE CREEK   CLEAR     56  52  86 CALM      30.10R
BENTON HARBOR  CLEAR     54  52  93 CALM      30.10R
COLDWATER*     CLEAR     56  54  95 CALM      30.09S
HILLSDALE*     CLEAR     56  55  98 CALM      30.09R
HOLLAND        CLEAR     55  52  89 CALM      30.11R
GRAND RAPIDS   CLEAR     57  53  86 CALM      30.10S
KALAMAZOO      CLEAR     57  53  86 N3        30.10R
STURGIS*       CLEAR     55  54  94 CALM      30.09R
THREE RIVERS*  FAIR      55  54  96 CALM      30.10S

$$
OHZ001>008-015>018-024>025-100900-
NORTHWEST OHIO

CITY           SKY/WX    TMP DP  RH WIND       PRES   REMARKS
WAUSEON*       FAIR      55  54  94 CALM      30.07R
DEFIANCE       CLEAR     56  53  90 CALM      30.08R
FINDLAY        CLEAR     58  55  90 W3        30.06R
TOLEDO EXPRESS CLEAR     59  54  83 CALM      30.06R
TOLEDO METCALF CLEAR     60  55  83 W3        30.06R
LIMA           MOCLDY    63  57  81 N5        30.07R

$$
&&



USA.gov is the U.S. government's official web portal to all federal, state and local government web resources and services.